Year,Month,Day,Hour,Minute,Value (Times are PST for temperature in C)
2007,06,27,00,00,16.70
2007,06,27,00,01,16.70
2007,06,27,00,02,16.70
2007,06,27,00,03,16.70
2007,06,27,00,04,16.70
2007,06,27,00,05,16.60
2007,06,27,00,06,16.60
2007,06,27,00,07,16.60
2007,06,27,00,08,16.60
2007,06,27,00,09,16.60
2007,06,27,00,10,16.50
2007,06,27,00,11,16.40
2007,06,27,00,12,16.40
2007,06,27,00,13,16.40
2007,06,27,00,14,16.40
2007,06,27,00,15,16.40
2007,06,27,00,16,16.40
2007,06,27,00,17,16.30
2007,06,27,00,18,16.30
2007,06,27,00,19,16.30
2007,06,27,00,20,16.30
2007,06,27,00,21,16.20
2007,06,27,00,22,16.20
2007,06,27,00,23,16.10
2007,06,27,00,24,16.10
2007,06,27,00,25,16.10
2007,06,27,00,26,16.00
2007,06,27,00,27,15.90
2007,06,27,00,28,15.80
2007,06,27,00,29,15.80
2007,06,27,00,30,15.80
2007,06,27,00,31,15.80
2007,06,27,00,32,15.70
2007,06,27,00,33,15.70
2007,06,27,00,34,15.60
2007,06,27,00,35,15.60
2007,06,27,00,36,15.50
2007,06,27,00,37,15.50
2007,06,27,00,38,15.40
2007,06,27,00,39,15.40
2007,06,27,00,40,15.40
2007,06,27,00,41,15.30
2007,06,27,00,42,15.30
2007,06,27,00,43,15.30
2007,06,27,00,44,15.30
2007,06,27,00,45,15.20
2007,06,27,00,46,15.20
2007,06,27,00,47,15.10
2007,06,27,00,48,15.10
2007,06,27,00,49,15.10
2007,06,27,00,50,15.00
2007,06,27,00,51,15.00
2007,06,27,00,52,15.00
2007,06,27,00,53,15.00
2007,06,27,00,54,15.00
2007,06,27,00,55,15.00
2007,06,27,00,56,15.00
2007,06,27,00,57,14.90
2007,06,27,00,58,14.90
2007,06,27,00,59,14.90
2007,06,27,01,00,14.90
2007,06,27,01,01,14.80
2007,06,27,01,02,14.80
2007,06,27,01,03,14.80
2007,06,27,01,04,14.70
2007,06,27,01,05,14.70
2007,06,27,01,06,14.60
2007,06,27,01,07,14.60
2007,06,27,01,08,14.50
2007,06,27,01,09,14.50
2007,06,27,01,10,14.40
2007,06,27,01,11,14.40
2007,06,27,01,12,14.30
2007,06,27,01,13,14.30
2007,06,27,01,14,14.30
2007,06,27,01,15,14.20
2007,06,27,01,16,14.20
2007,06,27,01,17,14.20
2007,06,27,01,18,14.20
2007,06,27,07,02,13.90
2007,06,27,07,03,13.90
2007,06,27,07,04,14.00
2007,06,27,07,05,14.00
2007,06,27,07,06,14.00
2007,06,27,07,07,14.10
2007,06,27,07,08,14.10
2007,06,27,07,09,14.10
2007,06,27,07,10,14.10
2007,06,27,07,11,14.10
2007,06,27,07,12,14.10
2007,06,27,07,13,14.20
2007,06,27,07,14,14.20
2007,06,27,07,15,14.20
2007,06,27,07,16,14.20
2007,06,27,07,17,14.20
2007,06,27,07,18,14.20
2007,06,27,07,19,14.20
2007,06,27,07,20,14.20
2007,06,27,07,21,14.20
2007,06,27,07,22,14.20
2007,06,27,07,23,14.20
2007,06,27,07,24,14.20
2007,06,27,07,25,14.20
2007,06,27,07,26,14.30
2007,06,27,07,27,14.30
2007,06,27,07,28,14.40
2007,06,27,07,29,14.40
2007,06,27,07,30,14.50
2007,06,27,07,31,14.50
2007,06,27,07,32,14.50
2007,06,27,07,33,14.60
2007,06,27,07,34,14.60
2007,06,27,07,35,14.60
2007,06,27,07,36,14.60
2007,06,27,07,37,14.60
2007,06,27,07,38,14.60
2007,06,27,07,39,14.60
2007,06,27,07,40,14.60
2007,06,27,07,41,14.60
2007,06,27,07,42,14.50
2007,06,27,07,43,14.50
2007,06,27,07,44,14.40
2007,06,27,07,45,14.40
2007,06,27,07,46,14.40
2007,06,27,07,47,14.40
2007,06,27,07,48,14.40
2007,06,27,07,49,14.40
2007,06,27,07,50,14.40
2007,06,27,07,51,14.40
2007,06,27,07,52,14.40
2007,06,27,07,53,14.40
2007,06,27,07,54,14.40
2007,06,27,07,55,14.40
2007,06,27,07,56,14.40
2007,06,27,07,57,14.50
2007,06,27,07,58,14.50
2007,06,27,07,59,14.50
2007,06,27,08,00,14.50
2007,06,27,08,01,14.60
2007,06,27,08,02,14.60
2007,06,27,08,03,14.70
2007,06,27,08,04,14.70
2007,06,27,08,05,14.70
2007,06,27,08,06,14.80
2007,06,27,08,07,14.80
2007,06,27,08,08,14.80
2007,06,27,08,09,14.80
2007,06,27,08,10,14.80
2007,06,27,08,11,14.80
2007,06,27,08,12,14.90
2007,06,27,08,13,14.90
2007,06,27,08,14,15.00
2007,06,27,08,15,15.00
2007,06,27,08,16,15.10
2007,06,27,08,17,15.10
2007,06,27,08,18,15.10
2007,06,27,08,19,15.20
2007,06,27,08,20,15.20
2007,06,27,08,21,15.20
2007,06,27,08,22,15.20
2007,06,27,08,23,15.20
2007,06,27,08,24,15.20
2007,06,27,08,25,15.30
2007,06,27,08,26,15.30
2007,06,27,08,27,15.30
2007,06,27,08,28,15.40
2007,06,27,08,29,15.50
2007,06,27,08,30,15.50
2007,06,27,08,31,15.50
2007,06,27,08,32,15.50
2007,06,27,08,33,15.60
2007,06,27,08,34,15.60
2007,06,27,08,35,15.70
2007,06,27,08,36,15.70
2007,06,27,08,37,15.80
2007,06,27,08,38,15.80
2007,06,27,08,39,15.80
2007,06,27,08,40,15.80
2007,06,27,08,41,15.80
2007,06,27,08,42,15.80
2007,06,27,08,43,15.80
2007,06,27,08,44,15.90
2007,06,27,08,45,15.90
2007,06,27,08,46,16.00
2007,06,27,08,47,16.10
2007,06,27,08,48,16.10
2007,06,27,08,49,16.00
2007,06,27,08,50,15.90
2007,06,27,08,51,15.90
2007,06,27,08,52,15.90
2007,06,27,08,53,15.80
2007,06,27,08,54,15.80
2007,06,27,08,55,15.80
2007,06,27,08,56,15.80
2007,06,27,08,57,15.80
2007,06,27,08,58,15.80
2007,06,27,08,59,15.80
2007,06,27,09,00,15.80
2007,06,27,09,01,15.80
2007,06,27,09,02,15.80
2007,06,27,09,03,15.90
2007,06,27,09,04,15.90
2007,06,27,09,05,15.90
2007,06,27,09,06,15.90
2007,06,27,09,07,15.80
2007,06,27,09,08,15.80
2007,06,27,09,09,15.80
2007,06,27,09,10,15.80
2007,06,27,09,11,15.80
2007,06,27,09,12,15.80
2007,06,27,09,13,15.80
2007,06,27,09,14,15.80
2007,06,27,09,15,15.90
2007,06,27,09,16,15.90
2007,06,27,09,17,15.90
2007,06,27,09,18,15.90
2007,06,27,09,19,15.90
2007,06,27,09,20,15.80
2007,06,27,09,21,15.80
2007,06,27,09,22,15.80
2007,06,27,09,23,15.80
2007,06,27,09,24,15.80
2007,06,27,09,25,15.80
2007,06,27,09,26,15.80
2007,06,27,09,27,15.80
2007,06,27,09,28,15.80
2007,06,27,09,29,15.80
2007,06,27,09,30,15.80
2007,06,27,09,31,15.90
2007,06,27,09,32,15.90
2007,06,27,09,33,15.90
2007,06,27,09,34,16.10
2007,06,27,09,35,16.10
2007,06,27,09,36,16.10
2007,06,27,09,37,16.10
2007,06,27,09,38,16.10
2007,06,27,09,39,16.10
2007,06,27,09,40,16.20
2007,06,27,09,41,16.30
2007,06,27,09,42,16.40
2007,06,27,09,43,16.50
2007,06,27,09,44,16.60
2007,06,27,09,45,16.70
2007,06,27,09,46,16.70
2007,06,27,09,47,16.80
2007,06,27,09,48,16.90
2007,06,27,09,49,17.00
2007,06,27,09,50,17.10
2007,06,27,09,51,17.20
2007,06,27,09,52,17.30
2007,06,27,09,53,17.30
2007,06,27,09,54,17.30
2007,06,27,09,55,17.30
2007,06,27,09,56,17.30
2007,06,27,09,57,17.40
2007,06,27,09,58,17.50
2007,06,27,09,59,17.50
2007,06,27,10,00,17.60
2007,06,27,10,01,17.50
2007,06,27,10,02,17.50
2007,06,27,10,03,17.50
2007,06,27,10,04,17.60
2007,06,27,10,05,17.50
2007,06,27,10,06,17.60
2007,06,27,10,07,17.60
2007,06,27,10,08,17.70
2007,06,27,10,09,17.70
2007,06,27,10,10,17.70
2007,06,27,10,11,17.80
2007,06,27,10,12,17.80
2007,06,27,10,13,17.80
2007,06,27,10,14,17.90
2007,06,27,10,15,18.00
2007,06,27,10,16,18.10
2007,06,27,10,17,18.20
2007,06,27,10,18,18.30
2007,06,27,10,19,18.50
2007,06,27,10,20,18.60
2007,06,27,10,21,18.80
2007,06,27,10,22,18.80
2007,06,27,10,23,18.90
2007,06,27,10,24,19.00
2007,06,27,10,25,19.10
2007,06,27,10,26,19.20
2007,06,27,10,27,19.20
2007,06,27,10,28,19.30
2007,06,27,10,29,19.50
2007,06,27,10,30,19.60
2007,06,27,10,31,19.60
2007,06,27,10,32,19.70
2007,06,27,10,33,19.80
2007,06,27,10,34,19.80
2007,06,27,10,35,19.80
2007,06,27,10,36,19.90
2007,06,27,10,37,19.90
2007,06,27,10,38,20.10
2007,06,27,10,39,20.10
2007,06,27,10,40,20.20
2007,06,27,10,41,20.10
2007,06,27,10,42,20.00
2007,06,27,10,43,19.90
2007,06,27,10,44,19.90
2007,06,27,10,45,19.90
2007,06,27,10,46,19.90
2007,06,27,10,47,20.00
2007,06,27,10,48,20.00
2007,06,27,10,49,19.80
2007,06,27,10,50,19.70
2007,06,27,10,51,19.60
2007,06,27,10,52,19.60
2007,06,27,10,53,19.80
2007,06,27,10,54,19.90
2007,06,27,10,55,20.00
2007,06,27,10,56,20.20
2007,06,27,10,57,20.30
2007,06,27,10,58,20.40
2007,06,27,10,59,20.50
2007,06,27,11,00,20.50
2007,06,27,11,01,20.50
2007,06,27,11,02,20.50
2007,06,27,11,03,20.40
2007,06,27,11,04,20.30
2007,06,27,11,05,20.20
2007,06,27,11,06,20.20
2007,06,27,11,07,20.20
2007,06,27,11,08,20.00
2007,06,27,11,09,19.90
2007,06,27,11,10,19.80
2007,06,27,11,11,19.90
2007,06,27,11,12,20.10
2007,06,27,11,13,20.20
2007,06,27,11,14,20.20
2007,06,27,11,15,20.40
2007,06,27,11,16,20.50
2007,06,27,11,17,20.50
2007,06,27,11,18,20.60
2007,06,27,11,19,20.60
2007,06,27,11,20,20.60
2007,06,27,11,21,20.50
2007,06,27,11,22,20.30
2007,06,27,11,23,20.30
2007,06,27,11,24,20.00
2007,06,27,11,25,19.90
2007,06,27,11,26,19.90
2007,06,27,11,27,19.90
2007,06,27,11,28,20.00
2007,06,27,11,29,20.10
2007,06,27,11,30,20.30
2007,06,27,11,31,20.50
2007,06,27,11,32,20.50
2007,06,27,11,33,20.50
2007,06,27,11,34,20.60
2007,06,27,11,35,20.60
2007,06,27,11,36,20.50
2007,06,27,11,37,20.50
2007,06,27,11,38,20.60
2007,06,27,11,39,20.60
2007,06,27,11,40,20.60
2007,06,27,11,41,20.40
2007,06,27,11,42,20.30
2007,06,27,11,43,20.40
2007,06,27,11,44,20.50
2007,06,27,11,45,20.60
2007,06,27,11,46,20.50
2007,06,27,11,47,20.40
2007,06,27,11,48,20.30
2007,06,27,11,49,20.20
2007,06,27,11,50,20.30
2007,06,27,11,51,20.40
2007,06,27,11,52,20.50
2007,06,27,11,53,20.50
2007,06,27,11,54,20.50
2007,06,27,11,55,20.70
2007,06,27,11,56,20.80
2007,06,27,11,57,20.80
2007,06,27,11,58,20.90
2007,06,27,11,59,21.00
2007,06,27,12,00,21.10
2007,06,27,12,01,21.10
2007,06,27,12,02,21.10
2007,06,27,12,03,21.30
2007,06,27,12,04,21.40
2007,06,27,12,05,21.50
2007,06,27,12,06,21.30
2007,06,27,12,07,21.30
2007,06,27,12,08,21.30
2007,06,27,12,09,21.20
2007,06,27,12,10,21.00
2007,06,27,12,11,20.90
2007,06,27,12,12,20.80
2007,06,27,12,13,20.80
2007,06,27,12,14,20.80
2007,06,27,12,15,20.70
2007,06,27,12,16,20.70
2007,06,27,12,17,20.80
2007,06,27,12,18,21.00
2007,06,27,12,19,21.00
2007,06,27,12,20,21.10
2007,06,27,12,21,21.10
2007,06,27,12,22,21.00
2007,06,27,12,23,20.90
2007,06,27,12,24,20.90
2007,06,27,12,25,20.90
2007,06,27,12,26,20.90
2007,06,27,12,27,20.80
2007,06,27,12,28,20.80
2007,06,27,12,29,20.50
2007,06,27,12,30,20.30
2007,06,27,12,31,20.20
2007,06,27,12,32,20.20
2007,06,27,12,33,20.30
2007,06,27,12,34,20.30
2007,06,27,12,35,20.20
2007,06,27,12,36,20.20
2007,06,27,12,37,20.20
2007,06,27,12,38,20.30
2007,06,27,12,39,20.40
2007,06,27,12,40,20.50
2007,06,27,12,41,20.50
2007,06,27,12,42,20.50
2007,06,27,12,43,20.50
2007,06,27,12,44,20.60
2007,06,27,12,45,20.70
2007,06,27,12,46,20.70
2007,06,27,12,47,20.70
2007,06,27,12,48,20.80
2007,06,27,12,49,20.70
2007,06,27,12,50,20.70
2007,06,27,12,51,20.70
2007,06,27,12,52,20.60
2007,06,27,12,53,20.50
2007,06,27,12,54,20.40
2007,06,27,12,55,20.20
2007,06,27,12,56,20.10
2007,06,27,12,57,20.20
2007,06,27,12,58,20.20
2007,06,27,12,59,20.10
2007,06,27,13,00,20.10
2007,06,27,13,01,20.10
2007,06,27,13,02,20.10
2007,06,27,13,03,20.10
2007,06,27,13,04,20.10
2007,06,27,13,05,20.10
2007,06,27,13,06,20.20
2007,06,27,13,07,20.20
2007,06,27,13,08,20.10
2007,06,27,13,09,20.00
2007,06,27,13,10,19.90
2007,06,27,13,11,19.90
2007,06,27,13,12,19.90
2007,06,27,13,13,20.10
2007,06,27,13,14,20.10
2007,06,27,13,15,20.10
2007,06,27,13,16,20.00
2007,06,27,13,17,19.90
2007,06,27,13,18,19.90
2007,06,27,13,19,19.90
2007,06,27,13,20,19.90
2007,06,27,13,21,19.80
2007,06,27,13,22,19.90
2007,06,27,13,23,19.90
2007,06,27,13,24,19.70
2007,06,27,13,25,19.60
2007,06,27,13,26,19.60
2007,06,27,13,27,19.70
2007,06,27,13,28,19.80
2007,06,27,13,29,19.90
2007,06,27,13,30,19.90
2007,06,27,13,31,19.90
2007,06,27,13,32,19.90
2007,06,27,13,33,20.00
2007,06,27,13,34,20.10
2007,06,27,13,35,20.00
2007,06,27,13,36,19.90
2007,06,27,13,37,19.90
2007,06,27,13,38,20.00
2007,06,27,13,39,20.10
2007,06,27,13,40,20.20
2007,06,27,13,41,20.10
2007,06,27,13,42,20.00
2007,06,27,13,43,19.90
2007,06,27,13,44,19.90
2007,06,27,13,45,19.90
2007,06,27,13,46,19.90
2007,06,27,13,47,20.00
2007,06,27,13,48,20.30
2007,06,27,13,49,20.30
2007,06,27,13,50,20.30
2007,06,27,13,51,20.30
2007,06,27,13,52,20.30
2007,06,27,13,53,20.20
2007,06,27,13,54,20.10
2007,06,27,13,55,20.00
2007,06,27,13,56,19.90
2007,06,27,13,57,19.90
2007,06,27,13,58,19.90
2007,06,27,13,59,19.90
2007,06,27,14,00,19.90
2007,06,27,14,01,19.90
2007,06,27,14,02,20.00
2007,06,27,14,03,20.00
2007,06,27,14,04,20.00
2007,06,27,14,05,20.10
2007,06,27,14,06,20.20
2007,06,27,14,07,20.40
2007,06,27,14,08,20.50
2007,06,27,14,09,20.50
2007,06,27,14,10,20.60
2007,06,27,14,11,20.60
2007,06,27,14,12,20.60
2007,06,27,14,13,20.60
2007,06,27,14,14,20.60
2007,06,27,14,15,20.50
2007,06,27,14,16,20.40
2007,06,27,14,17,20.30
2007,06,27,14,18,20.40
2007,06,27,14,19,20.40
2007,06,27,14,20,20.40
2007,06,27,14,21,20.40
2007,06,27,14,22,20.40
2007,06,27,14,23,20.40
2007,06,27,14,24,20.50
2007,06,27,14,25,20.50
2007,06,27,14,26,20.50
2007,06,27,14,27,20.40
2007,06,27,14,28,20.30
2007,06,27,14,29,20.30
2007,06,27,14,30,20.20
2007,06,27,14,31,20.40
2007,06,27,14,32,20.50
2007,06,27,14,33,20.50
2007,06,27,14,34,20.50
2007,06,27,14,35,20.50
2007,06,27,14,36,20.50
2007,06,27,14,37,20.50
2007,06,27,14,38,20.40
2007,06,27,14,39,20.30
2007,06,27,14,40,20.30
2007,06,27,14,41,20.40
2007,06,27,14,42,20.50
2007,06,27,14,43,20.50
2007,06,27,14,44,20.50
2007,06,27,14,45,20.50
2007,06,27,14,46,20.60
2007,06,27,14,47,20.60
2007,06,27,14,48,20.60
2007,06,27,14,49,20.70
2007,06,27,14,50,20.70
2007,06,27,14,51,20.80
2007,06,27,14,52,20.80
2007,06,27,14,53,20.80
2007,06,27,14,54,20.80
2007,06,27,14,55,20.90
2007,06,27,14,56,20.90
2007,06,27,14,57,20.90
2007,06,27,14,58,20.80
2007,06,27,14,59,20.80
2007,06,27,15,00,20.80
2007,06,27,15,01,20.90
2007,06,27,15,02,20.90
2007,06,27,15,03,21.00
2007,06,27,15,04,21.00
2007,06,27,15,05,21.10
2007,06,27,15,06,21.20
2007,06,27,15,07,21.30
2007,06,27,15,08,21.30
2007,06,27,15,09,21.40
2007,06,27,15,10,21.30
2007,06,27,15,11,21.30
2007,06,27,15,12,21.30
2007,06,27,15,13,21.20
2007,06,27,15,14,21.30
2007,06,27,15,15,21.30
2007,06,27,15,16,21.30
2007,06,27,15,17,21.30
2007,06,27,15,18,21.30
2007,06,27,15,19,21.30
2007,06,27,15,20,21.20
2007,06,27,15,21,21.10
2007,06,27,15,22,21.10
2007,06,27,15,23,21.10
2007,06,27,15,24,21.10
2007,06,27,15,25,21.20
2007,06,27,15,26,21.30
2007,06,27,15,27,21.30
2007,06,27,15,28,21.30
2007,06,27,15,29,21.30
2007,06,27,15,30,21.30
2007,06,27,15,31,21.30
2007,06,27,15,32,21.30
2007,06,27,15,33,21.20
2007,06,27,15,34,21.10
2007,06,27,15,35,21.10
2007,06,27,15,36,21.10
2007,06,27,15,37,21.10
2007,06,27,15,38,21.10
2007,06,27,15,39,21.20
2007,06,27,15,40,21.20
2007,06,27,15,41,21.20
2007,06,27,15,42,21.30
2007,06,27,15,43,21.30
2007,06,27,15,44,21.30
2007,06,27,15,45,21.30
2007,06,27,15,46,21.30
2007,06,27,15,47,21.40
2007,06,27,15,48,21.60
2007,06,27,15,49,21.50
2007,06,27,15,50,21.40
2007,06,27,15,51,21.30
2007,06,27,15,52,21.20
2007,06,27,15,53,21.10
2007,06,27,15,54,21.10
2007,06,27,15,55,21.20
2007,06,27,15,56,21.30
2007,06,27,15,57,21.40
2007,06,27,15,58,21.40
2007,06,27,15,59,21.40
2007,06,27,16,00,21.30
2007,06,27,16,01,21.30
2007,06,27,16,02,21.30
2007,06,27,16,03,21.30
2007,06,27,16,04,21.30
2007,06,27,16,05,21.30
2007,06,27,16,06,21.40
2007,06,27,16,07,21.40
2007,06,27,16,08,21.40
2007,06,27,16,09,21.50
2007,06,27,16,10,21.60
2007,06,27,16,11,21.60
2007,06,27,16,12,21.60
2007,06,27,16,13,21.70
2007,06,27,16,14,21.70
2007,06,27,16,15,21.70
2007,06,27,16,16,21.70
2007,06,27,16,17,21.70
2007,06,27,16,18,21.70
2007,06,27,16,19,21.70
2007,06,27,16,20,21.70
2007,06,27,16,21,21.70
2007,06,27,16,22,21.60
2007,06,27,16,23,21.60
2007,06,27,16,24,21.70
2007,06,27,16,25,21.70
2007,06,27,16,26,21.70
2007,06,27,16,27,21.70
2007,06,27,16,28,21.60
2007,06,27,16,29,21.60
2007,06,27,16,30,21.60
2007,06,27,16,31,21.60
2007,06,27,16,32,21.60
2007,06,27,16,33,21.60
2007,06,27,16,34,21.60
2007,06,27,16,35,21.60
2007,06,27,16,36,21.70
2007,06,27,16,37,21.70
2007,06,27,16,38,21.80
2007,06,27,16,39,21.90
2007,06,27,16,40,21.90
2007,06,27,16,41,21.80
2007,06,27,16,42,21.70
2007,06,27,16,43,21.80
2007,06,27,16,44,21.80
2007,06,27,16,45,21.70
2007,06,27,16,46,21.60
2007,06,27,16,47,21.60
2007,06,27,16,48,21.60
2007,06,27,16,49,21.60
2007,06,27,16,50,21.60
2007,06,27,16,51,21.60
2007,06,27,16,52,21.60
2007,06,27,16,53,21.50
2007,06,27,16,54,21.40
2007,06,27,16,55,21.40
2007,06,27,16,56,21.50
2007,06,27,16,57,21.60
2007,06,27,16,58,21.60
2007,06,27,16,59,21.70
2007,06,27,17,00,21.80
2007,06,27,17,01,21.70
2007,06,27,17,02,21.70
2007,06,27,17,03,21.60
2007,06,27,17,04,21.60
2007,06,27,17,05,21.60
2007,06,27,17,06,21.60
2007,06,27,17,07,21.60
2007,06,27,17,08,21.50
2007,06,27,17,09,21.40
2007,06,27,17,10,21.40
2007,06,27,17,11,21.40
2007,06,27,17,12,21.50
2007,06,27,17,13,21.60
2007,06,27,17,14,21.70
2007,06,27,17,15,21.70
2007,06,27,17,16,21.60
2007,06,27,17,17,21.60
2007,06,27,17,18,21.40
2007,06,27,17,19,21.30
2007,06,27,17,20,21.20
2007,06,27,17,21,21.10
2007,06,27,17,22,21.00
2007,06,27,17,23,20.90
2007,06,27,17,24,20.90
2007,06,27,17,25,20.90
2007,06,27,17,26,20.90
2007,06,27,17,27,20.90
2007,06,27,17,28,20.90
2007,06,27,17,29,20.90
2007,06,27,17,30,20.90
2007,06,27,17,31,21.00
2007,06,27,17,32,21.00
2007,06,27,17,33,21.10
2007,06,27,17,34,21.20
2007,06,27,17,35,21.30
2007,06,27,17,36,21.30
2007,06,27,17,37,21.40
2007,06,27,17,38,21.60
2007,06,27,17,39,21.50
2007,06,27,17,40,21.40
2007,06,27,17,41,21.40
2007,06,27,17,42,21.50
2007,06,27,17,43,21.60
2007,06,27,17,44,21.60
2007,06,27,17,45,21.60
2007,06,27,17,46,21.70
2007,06,27,17,47,21.70
2007,06,27,17,48,21.70
2007,06,27,17,49,21.60
2007,06,27,17,50,21.60
2007,06,27,17,51,21.60
2007,06,27,17,52,21.60
2007,06,27,17,53,21.60
2007,06,27,17,54,21.60
2007,06,27,17,55,21.60
2007,06,27,17,56,21.60
2007,06,27,17,57,21.60
2007,06,27,17,58,21.60
2007,06,27,17,59,21.70
2007,06,27,18,00,21.70
2007,06,27,18,01,21.80
2007,06,27,18,02,21.90
2007,06,27,18,03,22.00
2007,06,27,18,04,22.00
2007,06,27,18,05,22.00
2007,06,27,18,06,21.90
2007,06,27,18,07,21.90
2007,06,27,18,08,21.80
2007,06,27,18,09,21.60
2007,06,27,18,10,21.60
2007,06,27,18,11,21.50
2007,06,27,18,12,21.40
2007,06,27,18,13,21.30
2007,06,27,18,14,21.30
2007,06,27,18,15,21.10
2007,06,27,18,16,21.00
2007,06,27,18,17,20.90
2007,06,27,18,18,20.80
2007,06,27,18,19,20.70
2007,06,27,18,20,20.70
2007,06,27,18,21,20.70
2007,06,27,18,22,20.70
2007,06,27,18,23,20.70
2007,06,27,18,24,20.70
2007,06,27,18,25,20.70
2007,06,27,18,26,20.70
2007,06,27,18,27,20.70
2007,06,27,18,28,20.60
2007,06,27,18,29,20.60
2007,06,27,18,30,20.60
2007,06,27,18,31,20.50
2007,06,27,18,32,20.50
2007,06,27,18,33,20.50
2007,06,27,18,34,20.50
2007,06,27,18,35,20.50
2007,06,27,18,36,20.50
2007,06,27,18,37,20.40
2007,06,27,18,38,20.40
2007,06,27,18,39,20.30
2007,06,27,18,40,20.30
2007,06,27,18,41,20.30
2007,06,27,18,42,20.20
2007,06,27,18,43,20.20
2007,06,27,18,44,20.20
2007,06,27,18,45,20.20
2007,06,27,18,46,20.20
2007,06,27,18,47,20.20
2007,06,27,18,48,20.20
2007,06,27,18,49,20.20
2007,06,27,18,50,20.20
2007,06,27,18,51,20.20
2007,06,27,18,52,20.20
2007,06,27,18,53,20.20
2007,06,27,18,54,20.20
2007,06,27,18,55,20.20
2007,06,27,18,56,20.10
2007,06,27,18,57,20.10
2007,06,27,18,58,20.10
2007,06,27,18,59,20.10
2007,06,27,19,00,20.10
2007,06,27,19,01,20.10
2007,06,27,19,02,20.10
2007,06,27,19,03,20.10
2007,06,27,19,04,20.10
2007,06,27,19,05,20.20
2007,06,27,19,06,20.20
2007,06,27,19,07,20.20
2007,06,27,19,08,20.20
2007,06,27,19,09,20.20
2007,06,27,19,10,20.20
2007,06,27,19,11,20.20
2007,06,27,19,12,20.20
2007,06,27,19,13,20.20
2007,06,27,19,14,20.20
2007,06,27,19,15,20.20
2007,06,27,19,16,20.20
2007,06,27,19,17,20.20
2007,06,27,19,18,20.20
2007,06,27,19,19,20.20
2007,06,27,19,20,20.20
2007,06,27,19,21,20.20
2007,06,27,19,22,20.20
2007,06,27,19,23,20.20
2007,06,27,19,24,20.20
2007,06,27,19,25,20.20
2007,06,27,19,26,20.20
2007,06,27,19,27,20.20
2007,06,27,19,28,20.20
2007,06,27,19,29,20.20
2007,06,27,19,30,20.20
2007,06,27,19,31,20.20
2007,06,27,19,32,20.20
2007,06,27,19,33,20.10
2007,06,27,19,34,20.10
2007,06,27,19,35,20.00
2007,06,27,19,36,19.90
2007,06,27,19,37,19.90
2007,06,27,19,38,19.80
2007,06,27,19,39,19.70
2007,06,27,19,40,19.70
2007,06,27,19,41,19.70
2007,06,27,19,42,19.70
2007,06,27,19,43,19.60
2007,06,27,19,44,19.60
2007,06,27,19,45,19.60
2007,06,27,19,46,19.50
2007,06,27,19,47,19.50
2007,06,27,19,48,19.40
2007,06,27,19,49,19.40
2007,06,27,19,50,19.30
2007,06,27,19,51,19.30
2007,06,27,19,52,19.20
2007,06,27,19,53,19.10
2007,06,27,19,54,19.10
2007,06,27,19,55,18.90
2007,06,27,19,56,18.90
2007,06,27,19,57,18.80
2007,06,27,19,58,18.70
2007,06,27,19,59,18.70
2007,06,27,20,00,18.60
2007,06,27,20,01,18.50
2007,06,27,20,02,18.50
2007,06,27,20,03,18.40
2007,06,27,20,04,18.40
2007,06,27,20,05,18.30
2007,06,27,20,06,18.30
2007,06,27,20,07,18.20
2007,06,27,20,08,18.20
2007,06,27,20,09,18.20
2007,06,27,20,10,18.20
2007,06,27,20,11,18.20
2007,06,27,20,12,18.20
2007,06,27,20,13,18.30
2007,06,27,20,14,18.30
2007,06,27,20,15,18.30
2007,06,27,20,16,18.30
2007,06,27,20,17,18.30
2007,06,27,20,18,18.30
2007,06,27,20,19,18.30
2007,06,27,20,20,18.30
2007,06,27,20,21,18.20
2007,06,27,20,22,18.20
2007,06,27,20,23,18.20
2007,06,27,20,24,18.30
2007,06,27,20,25,18.30
2007,06,27,20,26,18.30
2007,06,27,20,27,18.30
2007,06,27,20,28,18.30
2007,06,27,20,29,18.30
2007,06,27,20,30,18.30
2007,06,27,20,31,18.30
2007,06,27,20,32,18.30
2007,06,27,20,33,18.30
2007,06,27,20,34,18.30
2007,06,27,20,35,18.30
2007,06,27,20,36,18.30
2007,06,27,20,37,18.30
2007,06,27,20,38,18.30
2007,06,27,20,39,18.30
2007,06,27,20,40,18.30
2007,06,27,20,41,18.20
2007,06,27,20,42,18.20
2007,06,27,20,43,18.20
2007,06,27,20,44,18.20
2007,06,27,20,45,18.20
2007,06,27,20,46,18.20
2007,06,27,20,47,18.20
2007,06,27,20,48,18.20
2007,06,27,20,49,18.20
2007,06,27,20,50,18.20
2007,06,27,20,51,18.20
2007,06,27,20,52,18.20
2007,06,27,20,53,18.20
2007,06,27,20,54,18.20
2007,06,27,20,55,18.30
2007,06,27,20,56,18.30
2007,06,27,20,57,18.20
2007,06,27,20,58,18.20
2007,06,27,20,59,18.20
2007,06,27,21,00,18.20
2007,06,27,21,01,18.20
2007,06,27,21,02,18.20
2007,06,27,21,03,18.20
2007,06,27,21,04,18.10
2007,06,27,21,05,18.00
2007,06,27,21,06,17.90
2007,06,27,21,07,17.90
2007,06,27,21,08,17.80
2007,06,27,21,09,17.80
2007,06,27,21,10,17.70
2007,06,27,21,11,17.70
2007,06,27,21,12,17.70
2007,06,27,21,13,17.70
2007,06,27,21,14,17.70
2007,06,27,21,15,17.70
2007,06,27,21,16,17.60
2007,06,27,21,17,17.60
2007,06,27,21,18,17.60
2007,06,27,21,19,17.60
2007,06,27,21,20,17.60
2007,06,27,21,21,17.60
2007,06,27,21,22,17.50
2007,06,27,21,23,17.50
2007,06,27,21,24,17.50
2007,06,27,21,25,17.50
2007,06,27,21,26,17.50
2007,06,27,21,27,17.50
2007,06,27,21,28,17.50
2007,06,27,21,29,17.50
2007,06,27,21,30,17.50
2007,06,27,21,31,17.50
2007,06,27,21,32,17.40
2007,06,27,21,33,17.40
2007,06,27,21,34,17.30
2007,06,27,21,35,17.30
2007,06,27,21,36,17.30
2007,06,27,21,37,17.30
2007,06,27,21,38,17.30
2007,06,27,21,39,17.30
2007,06,27,21,40,17.30
2007,06,27,21,41,17.30
2007,06,27,21,42,17.20
2007,06,27,21,43,17.20
2007,06,27,21,44,17.20
2007,06,27,21,45,17.20
2007,06,27,21,46,17.20
2007,06,27,21,47,17.20
2007,06,27,21,48,17.20
2007,06,27,21,49,17.20
2007,06,27,21,50,17.20
2007,06,27,21,51,17.20
2007,06,27,21,52,17.20
2007,06,27,21,53,17.20
2007,06,27,21,54,17.20
2007,06,27,21,55,17.20
2007,06,27,21,56,17.20
2007,06,27,21,57,17.20
2007,06,27,21,58,17.20
2007,06,27,21,59,17.20
2007,06,27,22,00,17.20
2007,06,27,22,01,17.20
2007,06,27,22,02,17.20
2007,06,27,22,03,17.30
2007,06,27,22,04,17.30
2007,06,27,22,05,17.30
2007,06,27,22,06,17.30
2007,06,27,22,07,17.30
2007,06,27,22,08,17.30
2007,06,27,22,09,17.30
2007,06,27,22,10,17.30
2007,06,27,22,11,17.30
2007,06,27,22,12,17.30
2007,06,27,22,13,17.30
2007,06,27,22,14,17.30
2007,06,27,22,15,17.30
2007,06,27,22,16,17.30
2007,06,27,22,17,17.30
2007,06,27,22,18,17.30
2007,06,27,22,19,17.30
2007,06,27,22,20,17.30
2007,06,27,22,21,17.30
2007,06,27,22,22,17.30
2007,06,27,22,23,17.30
2007,06,27,22,24,17.30
2007,06,27,22,25,17.30
2007,06,27,22,26,17.30
2007,06,27,22,27,17.30
2007,06,27,22,28,17.30
2007,06,27,22,29,17.30
2007,06,27,22,30,17.30
2007,06,27,22,31,17.30
2007,06,27,22,32,17.30
2007,06,27,22,33,17.30
2007,06,27,22,34,17.40
2007,06,27,22,35,17.40
2007,06,27,22,36,17.40
2007,06,27,22,37,17.40
2007,06,27,22,38,17.40
2007,06,27,22,39,17.40
2007,06,27,22,40,17.40
2007,06,27,22,41,17.40
2007,06,27,22,42,17.50
2007,06,27,22,43,17.40
2007,06,27,22,44,17.40
2007,06,27,22,45,17.40
2007,06,27,22,46,17.40
2007,06,27,22,47,17.40
2007,06,27,22,48,17.40
2007,06,27,22,49,17.40
2007,06,27,22,50,17.40
2007,06,27,22,51,17.40
2007,06,27,22,52,17.40
2007,06,27,22,53,17.40
2007,06,27,22,54,17.40
2007,06,27,22,55,17.40
2007,06,27,22,56,17.40
2007,06,27,22,57,17.40
2007,06,27,22,58,17.40
2007,06,27,22,59,17.40
2007,06,27,23,00,17.40
2007,06,27,23,01,17.40
2007,06,27,23,02,17.50